Powrót do katalogu

KL-ALPHA A

AktywnyNaukaPO
NORAD 44785·PAYLOAD·🇩🇪 Germany

Wystrzelony Nov 17, 2019 z Jiuquan Satellite Launch Center

Loading…

Następne Przeloty (najbliższe 24 godziny)

TLE

ŚwieżeSource: Space-Track

Epoka: Sep 14, 2026, 14:59 UTC

1 44785U 19077A   26257.62483084 -.00000044  00000-0 -79942-4 0  9994
2 44785  88.9306 212.7923 0009651 199.0005 161.0790 13.56049246337855

Śledź KL-ALPHA A w czasie rzeczywistym z AllMySat

Download on the App Store